Location: Boda
(47.1872°N, 9.5454°E)
Time: 18:15:04
(UTC+00:00)

Cosmos 1340 - Pass Details

Date: 14 May 2021
Orbit: 500 x 503 km, 81.2° (Epoch: 15 June)

Event Time Altitude Azimuth Distance (km) Brightness Sun altitude
Exits shadow 03:05:41 - 226° (SW) 1,823 4.8 -6.7°
Reaches altitude 10° 03:06:01 10° 229° (SW) 1,705 4.6 -6.7°
Maximum altitude 03:09:15 27° 289° (WNW) 985 3.8 -6.2°
Drops below altitude 10° 03:12:31 10° 349° (N) 1,717 5.7 -5.8°
Sets 03:14:53 0° 2° (N) 2,607 6.9 -5.5°
